RH
20 32 41 64 48 22 31 37 98 93 99 100 100 94 100 100 100 90 78 80 74 54 51 46 45 44 46 59 60 51 52 41 32 34 28 34 32 48 39 38 40 42 35 33 38
11 11 22 33 60 48 23 24 41 100 98 96 95 83 96 93 100 100 85 85 74 71 61 52 46 48 41 42 63 63 51 56 55 39 36 34 33 31 40 43 44 41 44 45 47
15 13 11 13 28 49 42 23 21 61 100 99 97 85 92 78 94 100 100 100 92 86 71 66 54 48 50 40 41 58 55 54 55 64 47 41 34 32 31 36 52 65 54 56 55
26 19 14 10 11 27 49 32 22 24 62 99 99 96 93 73 85 100 100 100 94 85 74 81 67 62 49 56 40 38 42 48 56 55 58 49 45 35 33 36 36 37 73 86 100
26 22 19 14 12 10 25 48 26 22 23 70 100 98 97 65 100 100 100 100 92 100 90 68 88 67 68 63 52 49 36 43 49 50 47 50 49 46 41 43 51 55 45 49 58
21 25 23 19 16 13 11 27 47 24 25 32 100 94 92 82 100 100 100 100 98 96 100 75 100 85 68 64 67 62 44 45 50 51 46 45 38 51 41 36 49 58 66 56 53
17 20 24 26 21 15 14 14 34 44 26 27 70 100 100 100 100 100 100 100 91 85 96 70 90 99 89 65 66 79 53 50 57 56 43 43 45 64 36 47 53 59 75 70 69
16 16 18 22 22 19 15 14 18 37 44 28 28 47 74 100 100 95 100 100 100 73 96 86 79 86 100 95 56 55 77 66 69 60 52 50 62 55 48 55 65 76 77 61 58
16 16 15 17 17 18 20 13 13 17 39 44 29 25 21 79 100 100 100 100 100 90 85 98 79 94 95 100 92 53 53 68 72 79 82 68 85 71 68 65 73 91 78 58 48
17 15 16 13 11 12 20 20 14 12 16 41 38 26 22 41 46 93 100 100 100 94 80 71 59 92 73 76 99 96 100 64 46 46 63 68 70 60 58 73 79 72 62 58 57
20 14 16 12 7 8 12 23 20 15 11 14 36 35 28 39 43 54 100 98 91 86 87 81 62 58 100 97 100 100 85 50 42 30 37 98 100 73 61 69 98 100 100 89 66
20 14 12 9 8 6 8 14 26 20 16 12 12 34 37 29 34 40 63 50 55 84 93 81 74 75 90 78 72 97 100 80 47 39 31 62 90 98 100 100 100 85 91 82 82
22 12 12 7 7 8 7 10 14 18 17 14 12 12 40 46 29 45 35 53 49 58 46 68 100 99 96 100 80 68 100 100 79 46 38 37 44 74 89 85 100 95 79 74 73
20 11 11 8 6 7 7 7 7 10 13 18 12 11 14 37 43 37 36 42 34 32 42 40 87 85 91 88 93 57 94 100 99 58 42 48 50 75 96 94 93 90 81 92 89
15 10 10 8 7 6 6 6 5 5 6 16 14 16 13 13 32 61 40 37 38 36 38 40 67 82 85 87 86 77 73 96 100 70 48 46 47 99 81 60 49 48 68 90 73
13 10 8 8 6 5 5 5 5 4 3 8 16 16 17 12 12 56 65 38 38 38 42 44 45 43 62 93 98 90 64 82 100 87 68 61 52 56 74 55 47 50 60 84 68
12 10 7 8 5 5 5 4 3 3 3 5 9 14 16 15 14 14 40 60 45 37 34 36 36 44 46 53 78 67 82 51 77 99 97 96 75 48 52 52 51 47 54 66 73
11 9 7 7 6 5 4 4 3 4 4 5 6 12 14 19 16 17 13 25 60 54 42 40 40 44 39 53 99 96 100 98 87 100 100 100 93 76 57 56 53 47 67 76 66
11 9 7 6 5 4 4 4 5 6 5 4 6 8 15 16 22 20 16 12 16 45 50 46 41 45 46 57 95 87 72 100 90 97 99 100 100 100 81 69 62 62 67 70 53
11 9 7 6 6 4 5 6 6 6 5 5 6 7 13 20 23 25 17 15 13 12 32 58 55 58 63 65 72 65 75 74 58 57 73 100 100 100 100 92 71 47 46 54 48
10 8 7 6 6 5 6 6 5 4 4 5 6 6 11 20 21 28 22 21 20 15 16 30 56 60 60 49 49 46 63 92 100 77 69 73 95 100 100 100 85 72 49 42 44
8 8 7 6 6 6 5 6 5 3 3 4 5 7 10 20 23 30 24 22 31 26 18 22 45 63 60 67 76 67 69 84 79 73 65 68 64 90 100 100 100 95 87 69 40
8 7 7 6 6 5 6 6 7 4 4 4 5 7 8 16 24 24 29 31 39 32 28 27 28 57 63 69 71 56 57 66 87 81 78 90 97 100 100 99 87 68 84 100 100
7 7 6 6 5 5 6 6 6 5 4 5 7 7 8 9 16 20 27 34 41 37 36 47 24 30 37 73 100 99 86 83 84 87 95 92 99 100 100 100 100 95 93 99 100
7 7 6 5 5 5 6 5 4 4 4 6 7 8 9 10 12 17 30 29 45 41 50 55 38 33 39 82 89 87 83 66 46 64 61 87 64 87 100 100 100 100 100 100 100
6 7 6 5 5 5 6 4 3 2 4 6 8 8 9 9 12 17 38 48 40 52 49 43 42 30 29 41 64 88 86 73 58 58 63 80 95 100 94 89 99 100 100 100 100
6 6 6 5 5 4 6 4 2 2 2 5 8 8 9 10 12 15 22 29 39 70 61 50 47 46 38 30 38 54 81 85 83 83 85 86 100 89 75 69 61 55 78 88 81
Wind_Speed
110 110 106 103 100 95 92 90 87 82 81 77 72 69 71 67 66 62 61 59 58 55 53 53 50 49 45 40 40 37 32 28 25 21 19 17 15 12 12 11 9 8 6 5 3
101 109 113 110 106 103 98 95 94 92 86 83 80 76 74 73 69 67 63 63 61 59 57 56 55 52 51 46 43 42 38 33 31 28 23 21 20 18 15 15 13 12 10 9 8
90 94 106 113 114 110 106 101 97 98 94 93 89 84 80 75 76 75 72 67 64 65 62 60 59 57 54 52 49 47 44 39 35 32 31 28 25 22 21 19 17 17 15 14 13
96 91 87 104 115 117 112 109 104 101 99 95 94 91 88 82 77 77 78 73 69 68 65 65 62 61 59 56 54 51 48 43 41 38 34 31 31 27 26 24 22 21 20 20 19
83 94 96 93 100 115 119 116 113 109 103 100 98 93 88 83 83 84 81 79 74 73 71 69 68 65 63 62 57 54 54 47 46 43 40 37 36 32 32 28 28 28 29 25 28
73 80 91 101 99 98 118 122 119 115 111 106 104 99 92 81 96 87 84 83 78 76 75 72 73 69 67 63 61 59 56 52 48 48 43 43 40 36 40 32 33 33 33 33 32
65 73 77 90 99 99 100 123 125 123 119 115 111 108 99 89 98 92 91 90 84 80 80 77 76 73 72 66 63 63 61 56 54 56 51 47 44 44 43 37 38 38 36 34 36
61 67 72 79 94 101 100 106 128 129 127 123 120 116 102 98 104 92 94 94 90 86 83 83 79 76 72 71 66 61 61 59 60 57 54 50 53 50 46 44 43 42 40 37 34
56 60 64 69 79 93 103 104 115 132 132 131 129 123 110 108 103 101 100 100 97 91 88 86 80 78 73 69 70 64 62 64 60 57 56 51 54 51 47 47 44 42 43 42 39
56 53 60 62 69 77 100 110 109 120 135 137 136 133 115 111 110 108 107 104 99 99 92 85 82 80 76 70 66 75 74 68 61 59 58 54 55 51 47 49 47 44 44 43 43
56 53 53 60 60 65 80 105 115 117 123 136 137 133 126 121 119 111 112 107 101 98 90 88 86 76 77 78 80 78 76 70 65 62 58 56 59 56 52 48 50 45 48 48 45
54 55 51 54 61 60 67 83 107 115 120 122 133 134 134 128 125 122 118 111 106 97 98 95 83 81 88 84 80 80 77 75 71 65 62 62 57 56 55 54 55 55 53 53 50
50 52 53 51 55 62 66 74 85 101 111 117 123 132 136 132 130 127 122 117 111 107 101 96 91 99 94 92 84 80 77 79 76 71 63 59 59 60 61 54 57 57 54 53 54
47 48 51 53 52 57 66 69 73 77 88 113 110 118 134 137 135 135 127 122 119 108 105 101 100 102 97 92 89 81 81 83 82 76 67 61 54 60 63 62 60 62 58 58 57
51 45 47 50 55 56 58 68 69 70 73 87 105 112 124 136 133 134 135 133 124 113 115 99 101 100 96 90 91 86 89 87 85 76 66 60 60 56 61 60 64 61 63 60 58
55 47 45 47 54 53 58 61 67 65 49 64 90 102 111 121 129 137 142 136 131 125 120 111 108 106 96 102 99 98 93 86 85 83 75 69 70 59 65 64 63 62 62 64 62
61 50 45 47 50 52 55 58 56 53 48 55 71 88 99 108 118 131 141 140 136 133 126 117 110 107 102 102 102 99 93 88 85 83 75 79 81 61 67 68 68 68 68 67 70
62 54 48 44 46 47 52 51 47 52 58 58 66 79 90 101 113 123 132 143 140 136 130 123 120 107 100 99 99 102 99 94 92 89 86 88 77 67 68 69 71 70 71 71 72
61 54 50 42 44 43 48 47 51 54 62 58 64 73 85 99 108 122 125 125 134 138 130 123 118 116 109 106 105 104 104 101 101 97 90 85 77 74 73 76 75 75 77 76 74
60 51 48 44 44 42 43 50 52 55 59 63 67 71 78 92 103 115 118 115 119 127 132 130 125 121 117 116 113 109 108 109 103 93 89 85 83 80 81 79 78 75 76 79 77
60 52 47 42 43 43 39 49 51 54 55 56 65 68 76 90 101 108 108 108 111 113 119 128 130 125 126 120 112 111 110 110 106 99 93 90 86 84 83 84 82 80 80 82 81
60 53 47 41 40 45 40 47 52 51 50 53 62 62 69 83 92 103 99 98 109 111 113 121 131 133 123 120 119 119 113 113 110 101 96 92 89 87 89 90 88 85 88 87 85
61 54 46 42 39 40 43 45 54 50 51 53 54 61 72 83 91 98 102 100 106 110 114 117 125 131 132 129 126 118 110 108 108 109 101 96 88 93 95 96 92 89 89 89 92
58 53 46 44 37 39 41 47 52 55 52 56 60 63 72 82 91 93 93 102 104 107 112 116 119 121 121 119 118 119 119 114 109 112 103 100 97 98 97 96 96 95 94 96 97
58 49 46 44 38 37 38 46 50 56 55 58 63 62 70 78 84 87 93 100 107 109 113 117 118 117 120 122 127 122 121 118 111 97 101 91 96 98 98 98 100 100 99 98 95
59 47 42 45 39 35 38 44 47 54 58 60 65 69 75 74 82 88 97 102 100 108 111 113 114 114 116 120 124 122 119 115 107 103 96 93 88 89 100 98 95 94 92 91 92
59 47 41 43 41 36 37 41 46 52 55 58 65 66 74 80 87 94 96 96 98 105 111 112 112 112 111 112 115 122 111 113 108 105 100 94 88 94 93 95 93 91 88 89 92
Wind_Direction
247 244 240 240 238 236 234 233 232 233 231 230 228 230 227 228 229 230 229 232 230 230 231 229 229 228 229 228 228 229 232 234 230 228 229 230 237 225 220 219 220 210 198 180 184
246 245 243 240 237 236 233 230 230 230 228 230 230 232 230 228 228 229 230 232 233 229 231 232 230 229 229 229 228 230 231 233 236 236 235 236 235 238 234 235 236 230 220 233 240
255 251 243 241 238 234 232 230 228 229 230 231 231 232 230 230 229 233 232 231 232 234 231 232 232 231 231 230 228 230 230 234 236 237 240 240 240 240 243 243 247 244 243 236 236
254 259 251 242 240 236 232 229 227 227 227 230 230 230 230 229 230 230 229 230 234 231 233 233 231 233 233 231 229 231 231 232 235 235 241 243 240 240 245 251 256 256 255 262 261
256 252 252 246 241 237 233 230 227 225 226 226 228 229 226 228 228 229 228 231 233 233 234 236 235 233 233 233 231 231 233 232 234 235 236 237 241 243 246 244 257 261 261 261 262
262 252 247 246 242 238 233 230 228 225 224 225 224 224 226 224 226 226 229 231 231 232 233 235 235 233 235 235 234 232 232 233 235 236 235 237 239 244 246 245 253 254 260 261 262
269 262 251 245 239 238 235 231 228 226 224 224 223 222 222 220 225 225 228 232 229 232 232 232 233 235 236 234 236 233 234 233 235 238 237 238 240 241 247 249 249 253 255 258 266
279 268 256 247 238 234 236 231 228 226 225 224 224 222 220 220 224 224 226 230 231 232 232 232 231 233 236 235 234 236 236 235 235 239 242 239 244 243 245 243 247 251 254 253 250
288 276 265 251 241 236 232 231 228 227 225 225 224 224 219 220 223 223 224 226 231 231 230 232 231 230 233 236 238 237 238 238 235 238 241 242 244 244 244 247 246 246 250 253 256
296 282 270 256 245 238 232 233 229 226 226 224 224 224 219 220 223 222 223 224 226 229 229 230 232 230 231 233 239 239 239 238 238 235 238 241 244 245 244 246 247 244 251 254 255
299 289 271 262 250 240 233 231 231 231 226 225 224 224 220 220 224 223 224 224 224 226 230 230 229 232 234 232 231 237 238 236 238 239 238 242 246 245 244 244 247 252 252 253 252
301 292 279 264 256 248 240 232 231 233 229 228 225 222 223 220 223 223 224 223 225 225 228 231 228 232 234 232 234 234 237 239 237 237 239 239 241 244 247 245 248 250 249 254 255
302 291 282 270 259 252 247 238 234 231 232 230 227 223 223 221 222 224 225 224 224 224 226 229 227 229 232 233 233 235 236 238 240 236 236 240 243 245 248 247 249 252 256 255 255
308 293 281 273 265 252 249 244 241 235 230 229 228 224 222 222 221 225 225 225 226 225 225 224 226 230 232 235 236 236 237 237 238 238 234 240 242 245 249 251 252 254 257 255 253
313 299 283 272 265 259 248 246 243 240 231 228 229 226 222 222 220 224 226 225 224 225 227 225 226 230 232 235 238 237 238 237 236 236 236 238 240 242 245 251 254 257 259 254 256
318 303 289 272 264 261 256 248 246 243 231 229 229 226 225 223 221 221 227 226 226 224 226 224 224 226 227 231 233 235 237 238 238 235 237 243 243 232 247 251 257 258 259 255 256
319 307 292 277 270 264 256 255 247 247 237 224 226 226 225 223 222 222 224 227 228 228 226 226 226 227 226 230 232 234 239 239 237 239 239 241 241 235 242 249 254 258 258 259 259
319 310 299 286 273 265 261 258 251 236 234 225 221 220 221 222 222 222 223 225 226 228 227 226 228 230 230 230 234 233 237 238 238 237 236 238 242 242 244 250 253 256 258 262 261
321 313 303 288 275 267 261 254 243 232 229 221 219 216 217 219 220 223 224 225 224 227 229 228 227 229 228 228 231 232 233 235 236 236 235 240 244 245 244 249 254 255 258 260 262
322 315 303 291 279 271 259 250 242 234 226 221 221 217 214 215 219 223 224 223 225 226 227 228 227 228 226 228 230 232 233 235 237 239 239 240 242 243 245 248 256 256 256 259 262
322 314 301 293 282 270 256 248 242 236 228 220 220 215 214 211 214 220 222 223 225 227 227 229 229 229 229 230 231 232 233 236 238 237 240 238 241 244 247 250 255 256 258 259 262
322 314 304 294 277 271 259 247 244 236 232 223 218 215 210 213 215 218 218 219 224 227 227 228 229 230 230 230 231 232 231 234 236 237 240 242 243 246 249 251 253 255 258 261 263
323 313 306 294 279 266 258 247 242 239 230 224 218 215 214 212 215 217 216 217 221 223 225 228 229 229 229 229 231 234 235 236 237 238 239 242 244 247 248 251 253 256 260 264 268
323 314 306 294 282 266 255 249 242 239 228 221 219 214 215 213 213 215 216 217 219 222 224 227 230 230 230 232 230 231 232 233 235 236 239 241 244 245 249 250 252 256 259 262 265
322 316 307 294 284 269 257 249 240 235 227 218 220 209 217 213 211 211 215 217 218 221 223 225 228 228 228 227 229 230 232 235 236 238 241 245 245 248 249 252 254 255 258 261 264
321 316 306 294 286 271 257 250 239 232 224 216 217 212 211 211 209 211 213 215 217 221 224 226 229 231 230 229 229 231 233 235 236 238 240 243 247 248 248 248 253 257 259 259 262
321 316 305 292 284 271 258 250 238 230 225 215 216 213 210 209 209 210 211 212 214 217 223 226 228 230 232 234 232 230 233 236 237 238 240 242 246 249 251 253 255 257 261 263 264